STARLINK-36301

Last updated on Fri Mar 27 2026 00:02:06 GMT+0000 (Coordinated Universal Time)

1 67932U 26037A 26085.50002314 .00039508 00000+0 67624-3 0 9993 2 67932 43.0000 96.9183 0001182 270.7878 269.0515 15.50563050 5815
UTC large
Height (km)
Speed (km/s)
/
Latitude / Longitude
Inclination (degrees)
Orbital Period (minutes)
Azimuth
Elevation
Range (km)
Doppler Factor

Next 0 passes for location: London (51.5072 / 0.1276)

Sorry there are no passes over London.